QPF
0.00 0.00 0.00 0.00 0.00 0.00 0.01 0.01 0.01 0.01 0.00 0.01 0.00 0.00 0.00 0.01 0.04 0.08 0.02 0.01 0.01 0.01 0.00 0.00 0.00 0.00 0.00 0.00 0.00 0.01 0.01 0.01 0.01 0.01 0.01 0.01 0.00 0.00 0.00 0.00 0.00 0.00 0.00 0.00 0.00 0.00 0.00 0.00 0.00
0.00 0.00 0.00 0.00 0.00 0.00 0.01 0.01 0.01 0.01 0.01 0.00 0.00 0.00 0.00 0.01 0.00 0.01 0.01 0.01 0.01 0.01 0.01 0.01 0.00 0.00 0.01 0.00 0.01 0.01 0.01 0.01 0.01 0.01 0.01 0.01 0.00 0.00 0.00 0.00 0.00 0.00 0.00 0.00 0.00 0.00 0.00 0.00 0.00
0.00 0.00 0.00 0.00 0.00 0.00 0.01 0.02 0.01 0.01 0.00 0.00 0.00 0.00 0.01 0.01 0.01 0.02 0.02 0.00 0.00 0.01 0.02 0.01 0.01 0.01 0.01 0.01 0.01 0.02 0.01 0.01 0.01 0.01 0.01 0.01 0.01 0.01 0.01 0.01 0.00 0.00 0.00 0.00 0.00 0.00 0.00 0.00 0.00
0.00 0.00 0.00 0.00 0.00 0.00 0.01 0.03 0.01 0.00 0.00 0.00 0.01 0.00 0.01 0.01 0.01 0.02 0.02 0.01 0.01 0.02 0.02 0.01 0.01 0.01 0.01 0.01 0.01 0.02 0.01 0.01 0.01 0.01 0.01 0.01 0.01 0.01 0.01 0.01 0.01 0.01 0.01 0.00 0.00 0.00 0.00 0.00 0.00
0.00 0.00 0.00 0.00 0.00 0.00 0.01 0.03 0.03 0.00 0.00 0.00 0.01 0.02 0.01 0.02 0.01 0.02 0.02 0.01 0.01 0.02 0.03 0.01 0.01 0.01 0.02 0.01 0.02 0.02 0.02 0.02 0.01 0.01 0.01 0.01 0.01 0.01 0.01 0.01 0.01 0.01 0.01 0.01 0.01 0.01 0.01 0.01 0.00
0.00 0.00 0.00 0.00 0.00 0.00 0.00 0.01 0.02 0.01 0.04 0.04 0.02 0.03 0.03 0.03 0.01 0.01 0.01 0.01 0.01 0.02 0.03 0.01 0.00 0.01 0.02 0.03 0.04 0.03 0.02 0.02 0.01 0.01 0.00 0.00 0.01 0.01 0.01 0.01 0.01 0.01 0.01 0.01 0.01 0.01 0.01 0.01 0.01
0.00 0.00 0.00 0.00 0.00 0.00 0.00 0.00 0.00 0.01 0.04 0.06 0.01 0.02 0.03 0.04 0.03 0.02 0.01 0.01 0.02 0.02 0.03 0.03 0.03 0.02 0.02 0.02 0.01 0.01 0.01 0.01 0.01 0.01 0.01 0.01 0.01 0.01 0.02 0.01 0.01 0.01 0.01 0.01 0.01 0.01 0.01 0.01 0.01
0.00 0.00 0.00 0.00 0.00 0.00 0.01 0.01 0.01 0.01 0.03 0.02 0.02 0.03 0.03 0.04 0.05 0.04 0.03 0.03 0.04 0.03 0.04 0.05 0.07 0.07 0.05 0.04 0.01 0.01 0.01 0.01 0.01 0.01 0.01 0.01 0.02 0.03 0.03 0.02 0.02 0.01 0.01 0.01 0.01 0.01 0.01 0.02 0.02
0.00 0.00 0.00 0.00 0.00 0.00 0.02 0.01 0.01 0.02 0.02 0.03 0.05 0.06 0.05 0.04 0.04 0.04 0.05 0.06 0.08 0.07 0.04 0.06 0.08 0.09 0.09 0.09 0.04 0.04 0.02 0.01 0.02 0.03 0.02 0.02 0.04 0.09 0.10 0.06 0.04 0.03 0.02 0.01 0.02 0.02 0.02 0.02 0.03
0.00 0.00 0.00 0.00 0.00 0.01 0.03 0.02 0.00 0.01 0.02 0.08 0.10 0.09 0.08 0.05 0.05 0.07 0.08 0.09 0.09 0.08 0.06 0.06 0.08 0.10 0.08 0.08 0.09 0.08 0.07 0.07 0.06 0.09 0.08 0.08 0.11 0.10 0.09 0.08 0.04 0.03 0.02 0.02 0.03 0.03 0.04 0.04 0.07
0.00 0.00 0.00 0.00 0.00 0.01 0.03 0.03 0.02 0.02 0.04 0.08 0.09 0.05 0.07 0.05 0.06 0.07 0.09 0.12 0.10 0.07 0.05 0.04 0.05 0.06 0.07 0.08 0.08 0.07 0.08 0.09 0.09 0.10 0.11 0.11 0.11 0.09 0.09 0.10 0.10 0.08 0.06 0.08 0.10 0.08 0.08 0.10 0.10
0.00 0.00 0.00 0.00 0.00 0.02 0.06 0.07 0.06 0.04 0.07 0.10 0.09 0.09 0.06 0.04 0.04 0.05 0.05 0.06 0.07 0.06 0.05 0.04 0.04 0.05 0.05 0.05 0.06 0.07 0.07 0.08 0.07 0.08 0.08 0.10 0.10 0.10 0.11 0.10 0.11 0.12 0.13 0.14 0.14 0.11 0.09 0.09 0.09
0.00 0.00 0.00 0.00 0.00 0.01 0.03 0.04 0.06 0.05 0.07 0.11 0.11 0.12 0.09 0.05 0.04 0.05 0.07 0.06 0.07 0.06 0.05 0.04 0.05 0.05 0.05 0.06 0.07 0.07 0.09 0.08 0.08 0.09 0.08 0.08 0.09 0.08 0.10 0.10 0.12 0.12 0.13 0.13 0.13 0.10 0.08 0.08 0.06
0.00 0.00 0.00 0.00 0.01 0.01 0.03 0.04 0.04 0.04 0.05 0.08 0.10 0.09 0.11 0.06 0.03 0.03 0.04 0.04 0.04 0.05 0.05 0.05 0.04 0.04 0.04 0.05 0.07 0.08 0.07 0.06 0.07 0.07 0.07 0.06 0.07 0.08 0.09 0.10 0.10 0.11 0.12 0.11 0.11 0.10 0.10 0.10 0.09
0.00 0.01 0.01 0.01 0.00 0.01 0.04 0.05 0.04 0.03 0.04 0.06 0.10 0.08 0.10 0.07 0.04 0.02 0.02 0.03 0.03 0.03 0.04 0.04 0.03 0.03 0.03 0.04 0.04 0.05 0.04 0.03 0.05 0.06 0.06 0.06 0.09 0.12 0.14 0.13 0.10 0.10 0.09 0.10 0.09 0.08 0.09 0.10 0.10
0.00 0.02 0.03 0.01 0.00 0.01 0.03 0.05 0.04 0.03 0.04 0.05 0.11 0.11 0.07 0.06 0.04 0.03 0.03 0.03 0.03 0.03 0.04 0.03 0.04 0.04 0.04 0.04 0.03 0.04 0.04 0.04 0.05 0.06 0.07 0.10 0.16 0.17 0.18 0.17 0.13 0.11 0.09 0.09 0.09 0.07 0.08 0.09 0.10
0.00 0.02 0.04 0.03 0.01 0.01 0.02 0.03 0.06 0.03 0.03 0.07 0.08 0.09 0.08 0.05 0.03 0.04 0.04 0.03 0.03 0.03 0.04 0.04 0.05 0.05 0.05 0.04 0.05 0.04 0.04 0.04 0.05 0.06 0.07 0.13 0.21 0.20 0.15 0.11 0.11 0.11 0.10 0.09 0.06 0.07 0.08 0.09 0.09
0.01 0.02 0.02 0.01 0.00 0.00 0.02 0.07 0.07 0.06 0.05 0.06 0.07 0.07 0.07 0.06 0.04 0.03 0.03 0.02 0.02 0.03 0.03 0.04 0.05 0.05 0.05 0.05 0.06 0.05 0.04 0.04 0.04 0.05 0.05 0.06 0.08 0.09 0.10 0.10 0.10 0.11 0.10 0.08 0.07 0.07 0.09 0.09 0.09
0.01 0.01 0.02 0.02 0.01 0.02 0.04 0.11 0.11 0.07 0.06 0.05 0.05 0.07 0.07 0.06 0.05 0.03 0.02 0.03 0.03 0.04 0.04 0.04 0.05 0.05 0.05 0.06 0.06 0.05 0.05 0.05 0.05 0.05 0.04 0.03 0.03 0.03 0.04 0.05 0.07 0.08 0.07 0.06 0.07 0.07 0.07 0.07 0.09
0.01 0.01 0.02 0.02 0.01 0.03 0.06 0.07 0.07 0.07 0.06 0.06 0.07 0.08 0.09 0.06 0.05 0.04 0.03 0.03 0.03 0.05 0.06 0.05 0.05 0.05 0.05 0.06 0.06 0.06 0.07 0.06 0.04 0.04 0.04 0.02 0.02 0.01 0.02 0.03 0.04 0.05 0.06 0.06 0.07 0.06 0.06 0.06 0.07
0.02 0.02 0.02 0.02 0.01 0.02 0.04 0.04 0.05 0.05 0.05 0.07 0.09 0.09 0.11 0.09 0.06 0.05 0.04 0.03 0.03 0.05 0.06 0.04 0.04 0.05 0.06 0.06 0.06 0.07 0.07 0.06 0.04 0.04 0.03 0.02 0.01 0.02 0.02 0.02 0.03 0.04 0.05 0.06 0.07 0.08 0.08 0.07 0.07
0.02 0.02 0.01 0.01 0.03 0.02 0.02 0.04 0.07 0.07 0.09 0.08 0.10 0.09 0.13 0.15 0.13 0.09 0.06 0.05 0.04 0.04 0.06 0.05 0.03 0.04 0.05 0.05 0.06 0.07 0.06 0.05 0.04 0.03 0.02 0.02 0.02 0.02 0.02 0.02 0.02 0.03 0.04 0.05 0.06 0.07 0.07 0.07 0.06
0.01 0.01 0.01 0.01 0.02 0.02 0.01 0.03 0.04 0.04 0.07 0.06 0.09 0.07 0.07 0.07 0.06 0.05 0.04 0.04 0.03 0.04 0.05 0.07 0.04 0.04 0.04 0.05 0.05 0.05 0.05 0.04 0.03 0.03 0.03 0.04 0.04 0.03 0.02 0.02 0.02 0.04 0.05 0.05 0.05 0.05 0.05 0.06 0.06
0.00 0.00 0.00 0.01 0.01 0.02 0.01 0.03 0.06 0.05 0.04 0.04 0.07 0.07 0.07 0.04 0.02 0.02 0.02 0.02 0.03 0.03 0.04 0.07 0.07 0.04 0.04 0.04 0.04 0.04 0.05 0.06 0.07 0.08 0.07 0.04 0.04 0.04 0.04 0.03 0.03 0.03 0.03 0.04 0.04 0.05 0.05 0.06 0.07
0.00 0.01 0.02 0.03 0.03 0.04 0.01 0.02 0.04 0.02 0.02 0.01 0.04 0.06 0.08 0.08 0.05 0.02 0.01 0.02 0.03 0.03 0.03 0.05 0.05 0.04 0.03 0.03 0.03 0.04 0.05 0.06 0.07 0.07 0.06 0.04 0.03 0.03 0.03 0.03 0.03 0.02 0.02 0.02 0.04 0.05 0.05 0.06 0.07
0.00 0.01 0.03 0.05 0.03 0.01 0.01 0.01 0.01 0.01 0.01 0.00 0.01 0.02 0.04 0.03 0.04 0.03 0.02 0.02 0.02 0.02 0.03 0.04 0.04 0.04 0.02 0.02 0.03 0.03 0.02 0.02 0.03 0.03 0.02 0.02 0.02 0.02 0.03 0.02 0.02 0.02 0.02 0.02 0.04 0.04 0.05 0.05 0.06
0.00 0.00 0.01 0.02 0.02 0.03 0.03 0.02 0.01 0.00 0.00 0.00 0.01 0.01 0.02 0.02 0.02 0.03 0.03 0.03 0.03 0.04 0.03 0.03 0.04 0.04 0.03 0.03 0.04 0.04 0.03 0.03 0.03 0.03 0.02 0.02 0.02 0.02 0.02 0.02 0.02 0.02 0.02 0.03 0.04 0.04 0.04 0.05 0.07
0.00 0.00 0.00 0.01 0.04 0.04 0.04 0.04 0.04 0.02 0.01 0.01 0.01 0.01 0.02 0.04 0.04 0.02 0.02 0.03 0.04 0.04 0.04 0.04 0.04 0.04 0.04 0.03 0.03 0.03 0.03 0.03 0.03 0.03 0.02 0.03 0.03 0.02 0.02 0.02 0.03 0.03 0.02 0.03 0.04 0.04 0.04 0.05 0.06
0.00 0.00 0.00 0.01 0.03 0.05 0.06 0.09 0.06 0.02 0.01 0.02 0.03 0.01 0.01 0.01 0.02 0.02 0.03 0.04 0.05 0.05 0.06 0.07 0.07 0.08 0.07 0.03 0.03 0.03 0.03 0.03 0.03 0.03 0.02 0.02 0.02 0.02 0.02 0.02 0.03 0.03 0.03 0.04 0.04 0.04 0.04 0.04 0.04
0.00 0.00 0.00 0.01 0.03 0.06 0.07 0.07 0.04 0.03 0.03 0.03 0.03 0.02 0.01 0.03 0.02 0.03 0.03 0.03 0.03 0.04 0.06 0.07 0.07 0.07 0.06 0.05 0.05 0.03 0.02 0.02 0.02 0.02 0.01 0.01 0.01 0.01 0.01 0.01 0.02 0.03 0.03 0.03 0.03 0.03 0.03 0.04 0.04
MSLP
1008.95 1009.35 1009.69 1009.85 1009.73 1009.31 1008.65 1007.88 1007.14 1006.60 1006.35 1006.43 1006.81 1007.37 1008.00 1008.57 1008.99 1009.23 1009.34 1009.40 1009.51 1009.75 1010.17 1010.77 1011.47 1012.20 1012.87 1013.40 1013.79 1014.03 1014.19 1014.33 1014.52 1014.78 1015.12 1015.50 1015.87 1016.16 1016.34 1016.40 1016.35 1016.24 1016.13 1016.05 1016.04 1016.10 1016.19 1016.28 1016.34
1009.24 1009.69 1010.00 1010.03 1009.72 1009.09 1008.22 1007.27 1006.41 1005.80 1005.53 1005.61 1006.00 1006.57 1007.21 1007.78 1008.21 1008.50 1008.70 1008.89 1009.17 1009.60 1010.21 1010.96 1011.79 1012.59 1013.27 1013.79 1014.13 1014.33 1014.46 1014.58 1014.77 1015.05 1015.40 1015.78 1016.13 1016.38 1016.52 1016.52 1016.43 1016.29 1016.17 1016.10 1016.11 1016.18 1016.29 1016.38 1016.43
1009.54 1010.01 1010.24 1010.12 1009.62 1008.78 1007.74 1006.66 1005.72 1005.08 1004.81 1004.92 1005.33 1005.91 1006.53 1007.08 1007.50 1007.82 1008.08 1008.38 1008.80 1009.41 1010.19 1011.10 1012.05 1012.93 1013.65 1014.17 1014.49 1014.67 1014.77 1014.88 1015.06 1015.33 1015.66 1016.01 1016.32 1016.53 1016.61 1016.57 1016.46 1016.32 1016.21 1016.17 1016.21 1016.31 1016.43 1016.53 1016.57
1009.81 1010.23 1010.35 1010.07 1009.39 1008.39 1007.23 1006.08 1005.13 1004.53 1004.33 1004.50 1004.94 1005.52 1006.12 1006.62 1007.01 1007.30 1007.59 1007.95 1008.49 1009.22 1010.15 1011.19 1012.24 1013.19 1013.95 1014.49 1014.81 1014.98 1015.07 1015.17 1015.34 1015.59 1015.90 1016.21 1016.47 1016.63 1016.67 1016.61 1016.49 1016.37 1016.29 1016.30 1016.38 1016.51 1016.65 1016.74 1016.75
1009.98 1010.31 1010.28 1009.85 1009.02 1007.91 1006.70 1005.57 1004.71 1004.23 1004.15 1004.42 1004.92 1005.52 1006.08 1006.53 1006.85 1007.09 1007.34 1007.72 1008.29 1009.10 1010.10 1011.22 1012.34 1013.34 1014.13 1014.69 1015.02 1015.20 1015.30 1015.41 1015.58 1015.81 1016.10 1016.37 1016.59 1016.71 1016.73 1016.65 1016.54 1016.45 1016.43 1016.48 1016.60 1016.76 1016.90 1016.97 1016.95
1009.99 1010.18 1010.00 1009.41 1008.48 1007.33 1006.16 1005.14 1004.44 1004.16 1004.26 1004.68 1005.28 1005.92 1006.46 1006.84 1007.07 1007.22 1007.40 1007.73 1008.28 1009.08 1010.09 1011.22 1012.34 1013.35 1014.15 1014.72 1015.08 1015.28 1015.41 1015.55 1015.73 1015.97 1016.24 1016.49 1016.68 1016.77 1016.77 1016.70 1016.61 1016.56 1016.58 1016.67 1016.83 1017.00 1017.13 1017.17 1017.10
1009.80 1009.82 1009.47 1008.76 1007.77 1006.66 1005.60 1004.77 1004.31 1004.28 1004.62 1005.23 1005.95 1006.64 1007.17 1007.50 1007.64 1007.69 1007.77 1008.00 1008.47 1009.19 1010.13 1011.20 1012.28 1013.24 1014.03 1014.59 1014.97 1015.21 1015.38 1015.56 1015.78 1016.04 1016.31 1016.55 1016.72 1016.79 1016.78 1016.72 1016.66 1016.63 1016.68 1016.81 1016.97 1017.14 1017.24 1017.25 1017.13
1009.42 1009.26 1008.75 1007.95 1006.95 1005.91 1005.03 1004.44 1004.26 1004.51 1005.11 1005.92 1006.79 1007.55 1008.09 1008.38 1008.45 1008.41 1008.39 1008.51 1008.86 1009.46 1010.27 1011.22 1012.19 1013.07 1013.80 1014.34 1014.72 1015.00 1015.23 1015.46 1015.73 1016.02 1016.31 1016.54 1016.70 1016.77 1016.75 1016.69 1016.63 1016.62 1016.69 1016.81 1016.98 1017.12 1017.19 1017.15 1016.99
1008.89 1008.55 1007.92 1007.05 1006.08 1005.17 1004.48 1004.16 1004.26 1004.79 1005.63 1006.64 1007.64 1008.48 1009.05 1009.33 1009.37 1009.26 1009.16 1009.18 1009.40 1009.86 1010.52 1011.32 1012.14 1012.90 1013.54 1014.04 1014.41 1014.72 1015.00 1015.29 1015.61 1015.94 1016.24 1016.48 1016.63 1016.68 1016.65 1016.58 1016.52 1016.50 1016.56 1016.67 1016.81 1016.92 1016.96 1016.87 1016.67
1008.30 1007.82 1007.08 1006.19 1005.29 1004.52 1004.04 1003.96 1004.32 1005.09 1006.13 1007.29 1008.40 1009.30 1009.91 1010.21 1010.24 1010.12 1009.97 1009.92 1010.05 1010.38 1010.89 1011.51 1012.17 1012.79 1013.33 1013.76 1014.12 1014.44 1014.76 1015.10 1015.46 1015.82 1016.14 1016.38 1016.51 1016.54 1016.49 1016.40 1016.32 1016.29 1016.32 1016.40 1016.50 1016.58 1016.57 1016.46 1016.24
1007.75 1007.16 1006.37 1005.49 1004.68 1004.06 1003.78 1003.92 1004.48 1005.42 1006.59 1007.84 1009.00 1009.94 1010.58 1010.90 1010.97 1010.87 1010.73 1010.66 1010.73 1010.96 1011.34 1011.82 1012.32 1012.81 1013.24 1013.60 1013.93 1014.25 1014.58 1014.95 1015.34 1015.71 1016.03 1016.26 1016.38 1016.39 1016.31 1016.19 1016.08 1016.02 1016.02 1016.06 1016.13 1016.16 1016.13 1016.00 1015.76
1007.33 1006.67 1005.87 1005.06 1004.35 1003.90 1003.80 1004.10 1004.80 1005.83 1007.05 1008.31 1009.47 1010.40 1011.04 1011.39 1011.50 1011.45 1011.36 1011.31 1011.37 1011.55 1011.85 1012.21 1012.59 1012.96 1013.29 1013.59 1013.88 1014.18 1014.52 1014.89 1015.28 1015.65 1015.96 1016.18 1016.27 1016.25 1016.15 1016.01 1015.87 1015.77 1015.74 1015.74 1015.77 1015.78 1015.72 1015.58 1015.35
1007.08 1006.40 1005.64 1004.92 1004.36 1004.07 1004.13 1004.56 1005.34 1006.38 1007.57 1008.77 1009.85 1010.72 1011.33 1011.68 1011.83 1011.85 1011.83 1011.84 1011.93 1012.10 1012.35 1012.64 1012.94 1013.22 1013.48 1013.73 1013.98 1014.26 1014.58 1014.94 1015.32 1015.67 1015.95 1016.14 1016.21 1016.17 1016.05 1015.89 1015.73 1015.61 1015.55 1015.53 1015.53 1015.51 1015.44 1015.29 1015.07
1007.00 1006.35 1005.67 1005.09 1004.69 1004.57 1004.77 1005.30 1006.10 1007.11 1008.20 1009.27 1010.21 1010.97 1011.50 1011.83 1012.00 1012.08 1012.13 1012.21 1012.34 1012.53 1012.77 1013.04 1013.29 1013.53 1013.76 1013.97 1014.20 1014.46 1014.77 1015.10 1015.44 1015.76 1016.00 1016.16 1016.20 1016.15 1016.02 1015.86 1015.71 1015.58 1015.51 1015.47 1015.45 1015.41 1015.33 1015.18 1014.96
1007.02 1006.42 1005.87 1005.45 1005.24 1005.30 1005.64 1006.24 1007.05 1007.97 1008.93 1009.83 1010.60 1011.20 1011.63 1011.90 1012.07 1012.18 1012.28 1012.41 1012.59 1012.82 1013.07 1013.34 1013.59 1013.82 1014.04 1014.25 1014.48 1014.73 1015.01 1015.32 1015.62 1015.89 1016.09 1016.22 1016.25 1016.19 1016.08 1015.94 1015.80 1015.69 1015.61 1015.57 1015.53 1015.48 1015.39 1015.23 1015.01
1007.06 1006.54 1006.12 1005.88 1005.88 1006.12 1006.60 1007.26 1008.05 1008.89 1009.69 1010.41 1010.99 1011.43 1011.74 1011.93 1012.07 1012.18 1012.31 1012.48 1012.70 1012.95 1013.22 1013.50 1013.77 1014.03 1014.26 1014.50 1014.74 1015.00 1015.27 1015.55 1015.81 1016.03 1016.20 1016.30 1016.32 1016.28 1016.19 1016.08 1015.98 1015.89 1015.83 1015.79 1015.74 1015.68 1015.57 1015.41 1015.18
1007.05 1006.61 1006.34 1006.29 1006.48 1006.90 1007.50 1008.22 1008.98 1009.72 1010.38 1010.92 1011.33 1011.62 1011.80 1011.93 1012.02 1012.13 1012.27 1012.45 1012.68 1012.95 1013.24 1013.54 1013.83 1014.12 1014.40 1014.67 1014.95 1015.23 1015.50 1015.76 1015.99 1016.17 1016.31 1016.38 1016.40 1016.38 1016.33 1016.26 1016.20 1016.15 1016.12 1016.08 1016.03 1015.95 1015.82 1015.64 1015.39
1006.93 1006.60 1006.48 1006.61 1006.97 1007.54 1008.23 1008.97 1009.70 1010.34 1010.86 1011.25 1011.52 1011.68 1011.79 1011.86 1011.94 1012.04 1012.19 1012.38 1012.61 1012.88 1013.18 1013.48 1013.80 1014.13 1014.46 1014.78 1015.10 1015.41 1015.69 1015.94 1016.14 1016.30 1016.40 1016.46 1016.48 1016.48 1016.47 1016.45 1016.44 1016.43 1016.41 1016.39 1016.33 1016.23 1016.08 1015.87 1015.61
1006.75 1006.52 1006.54 1006.83 1007.33 1007.99 1008.73 1009.46 1010.12 1010.65 1011.04 1011.31 1011.47 1011.57 1011.64 1011.71 1011.81 1011.94 1012.12 1012.33 1012.57 1012.83 1013.12 1013.43 1013.77 1014.12 1014.49 1014.86 1015.22 1015.56 1015.86 1016.10 1016.29 1016.42 1016.50 1016.54 1016.56 1016.58 1016.60 1016.63 1016.66 1016.68 1016.69 1016.67 1016.60 1016.48 1016.31 1016.08 1015.79
1006.58 1006.46 1006.62 1007.02 1007.61 1008.31 1009.03 1009.69 1010.23 1010.63 1010.89 1011.05 1011.15 1011.23 1011.33 1011.46 1011.64 1011.85 1012.10 1012.36 1012.62 1012.89 1013.17 1013.48 1013.81 1014.18 1014.57 1014.97 1015.37 1015.73 1016.05 1016.29 1016.46 1016.56 1016.62 1016.64 1016.66 1016.68 1016.73 1016.78 1016.85 1016.90 1016.92 1016.90 1016.83 1016.70 1016.50 1016.25 1015.96
1006.52 1006.53 1006.81 1007.30 1007.92 1008.59 1009.22 1009.74 1010.11 1010.34 1010.46 1010.53 1010.59 1010.70 1010.88 1011.14 1011.46 1011.82 1012.18 1012.53 1012.85 1013.14 1013.42 1013.71 1014.03 1014.39 1014.78 1015.20 1015.61 1015.98 1016.29 1016.52 1016.68 1016.75 1016.78 1016.78 1016.79 1016.81 1016.86 1016.93 1017.01 1017.08 1017.11 1017.10 1017.02 1016.88 1016.67 1016.41 1016.11
1006.66 1006.82 1007.21 1007.75 1008.36 1008.94 1009.41 1009.73 1009.89 1009.92 1009.88 1009.86 1009.90 1010.07 1010.38 1010.81 1011.33 1011.88 1012.41 1012.88 1013.29 1013.62 1013.91 1014.19 1014.48 1014.81 1015.18 1015.57 1015.96 1016.32 1016.62 1016.83 1016.96 1017.00 1017.00 1016.97 1016.95 1016.95 1016.99 1017.06 1017.15 1017.22 1017.26 1017.25 1017.17 1017.02 1016.82 1016.56 1016.26
1007.04 1007.36 1007.85 1008.43 1008.99 1009.44 1009.72 1009.80 1009.72 1009.53 1009.33 1009.22 1009.26 1009.50 1009.95 1010.58 1011.31 1012.08 1012.80 1013.43 1013.94 1014.33 1014.64 1014.89 1015.14 1015.42 1015.73 1016.08 1016.42 1016.75 1017.01 1017.19 1017.29 1017.30 1017.26 1017.20 1017.14 1017.12 1017.13 1017.18 1017.26 1017.33 1017.37 1017.36 1017.28 1017.15 1016.95 1016.70 1016.42
1007.62 1008.10 1008.69 1009.29 1009.78 1010.10 1010.18 1010.04 1009.72 1009.33 1008.98 1008.78 1008.82 1009.14 1009.73 1010.54 1011.48 1012.46 1013.37 1014.15 1014.76 1015.21 1015.53 1015.76 1015.95 1016.16 1016.40 1016.67 1016.95 1017.22 1017.43 1017.57 1017.62 1017.60 1017.52 1017.42 1017.33 1017.27 1017.25 1017.27 1017.33 1017.38 1017.42 1017.41 1017.35 1017.23 1017.05 1016.82 1016.56
1008.30 1008.92 1009.59 1010.20 1010.65 1010.85 1010.77 1010.45 1009.95 1009.40 1008.93 1008.68 1008.72 1009.10 1009.81 1010.76 1011.88 1013.02 1014.08 1014.98 1015.68 1016.16 1016.48 1016.67 1016.80 1016.92 1017.07 1017.25 1017.45 1017.65 1017.81 1017.90 1017.91 1017.85 1017.74 1017.61 1017.48 1017.38 1017.32 1017.31 1017.34 1017.37 1017.40 1017.39 1017.34 1017.24 1017.09 1016.88 1016.65
1008.94 1009.66 1010.40 1011.02 1011.43 1011.56 1011.39 1010.97 1010.37 1009.74 1009.23 1008.96 1009.02 1009.45 1010.23 1011.28 1012.49 1013.73 1014.88 1015.85 1016.58 1017.07 1017.36 1017.50 1017.56 1017.60 1017.65 1017.74 1017.85 1017.97 1018.07 1018.12 1018.10 1018.01 1017.88 1017.72 1017.56 1017.43 1017.34 1017.29 1017.28 1017.29 1017.30 1017.30 1017.25 1017.17 1017.04 1016.86 1016.64
1009.42 1010.19 1010.94 1011.57 1011.97 1012.09 1011.91 1011.48 1010.90 1010.29 1009.81 1009.58 1009.68 1010.16 1010.97 1012.05 1013.29 1014.54 1015.69 1016.65 1017.36 1017.82 1018.07 1018.15 1018.13 1018.08 1018.05 1018.05 1018.08 1018.14 1018.19 1018.20 1018.15 1018.06 1017.91 1017.74 1017.57 1017.41 1017.29 1017.20 1017.16 1017.14 1017.13 1017.11 1017.07 1017.00 1016.89 1016.74 1016.54
1009.67 1010.40 1011.13 1011.74 1012.15 1012.31 1012.20 1011.87 1011.40 1010.92 1010.56 1010.43 1010.61 1011.12 1011.93 1012.98 1014.16 1015.34 1016.42 1017.30 1017.94 1018.33 1018.51 1018.52 1018.44 1018.32 1018.21 1018.15 1018.12 1018.12 1018.13 1018.13 1018.08 1017.98 1017.85 1017.68 1017.51 1017.34 1017.19 1017.08 1017.00 1016.95 1016.91 1016.87 1016.83 1016.76 1016.66 1016.52 1016.33
1009.66 1010.29 1010.93 1011.50 1011.91 1012.14 1012.16 1012.01 1011.75 1011.49 1011.33 1011.35 1011.63 1012.17 1012.96 1013.94 1014.99 1016.04 1016.97 1017.72 1018.25 1018.55 1018.65 1018.60 1018.47 1018.30 1018.15 1018.04 1017.97 1017.95 1017.94 1017.93 1017.90 1017.83 1017.72 1017.58 1017.41 1017.25 1017.09 1016.96 1016.84 1016.75 1016.68 1016.61 1016.54 1016.46 1016.36 1016.23 1016.06
1009.50 1009.95 1010.45 1010.93 1011.34 1011.63 1011.81 1011.87 1011.87 1011.88 1011.96 1012.17 1012.57 1013.15 1013.90 1014.77 1015.68 1016.55 1017.30 1017.89 1018.29 1018.49 1018.52 1018.42 1018.26 1018.07 1017.90 1017.78 1017.71 1017.68 1017.67 1017.68 1017.67 1017.63 1017.56 1017.45 1017.32 1017.17 1017.01 1016.86 1016.72 1016.59 1016.47 1016.36 1016.26 1016.16 1016.05 1015.91 1015.74
Thickness
5818 5823 5826 5823 5810 5804 5807 5830 5846 5845 5845 5853 5853 5842 5826 5814 5804 5789 5818 5829 5822 5811 5802 5795 5790 5787 5783 5780 5777 5774 5771 5768 5765 5762 5760 5758 5756 5754 5752 5751 5750 5748 5747 5746 5745 5745 5744 5743 5743
5818 5825 5823 5815 5799 5793 5811 5839 5841 5843 5849 5853 5849 5840 5826 5816 5820 5817 5820 5822 5817 5808 5800 5794 5787 5783 5780 5776 5773 5770 5767 5764 5761 5759 5756 5754 5752 5750 5749 5748 5746 5745 5744 5743 5742 5742 5741 5740 5740
5814 5823 5812 5806 5799 5802 5817 5840 5844 5850 5855 5848 5838 5834 5822 5812 5817 5817 5819 5820 5813 5805 5797 5789 5784 5780 5776 5772 5769 5766 5763 5760 5757 5755 5753 5751 5749 5747 5745 5744 5743 5742 5741 5740 5740 5739 5738 5738 5737
5812 5813 5809 5803 5803 5825 5835 5841 5845 5845 5846 5845 5835 5818 5816 5820 5821 5820 5820 5817 5808 5801 5793 5785 5781 5776 5772 5769 5765 5762 5759 5756 5753 5751 5749 5747 5745 5743 5742 5741 5740 5739 5738 5737 5737 5736 5735 5735 5734
5810 5803 5792 5796 5812 5832 5845 5845 5844 5838 5835 5836 5830 5808 5802 5816 5823 5820 5817 5812 5805 5799 5790 5781 5776 5772 5768 5765 5761 5758 5755 5752 5750 5747 5745 5743 5741 5740 5739 5738 5737 5736 5735 5734 5734 5733 5732 5732 5732
5797 5799 5785 5790 5814 5836 5847 5850 5844 5835 5831 5830 5822 5804 5796 5813 5814 5814 5813 5808 5804 5796 5787 5778 5772 5768 5764 5761 5757 5754 5751 5749 5746 5743 5741 5739 5738 5737 5735 5734 5734 5733 5732 5731 5730 5730 5729 5729 5729
5789 5790 5789 5802 5816 5828 5841 5850 5841 5832 5824 5825 5825 5801 5794 5804 5809 5811 5808 5805 5801 5794 5784 5775 5770 5765 5760 5757 5753 5750 5747 5744 5742 5739 5738 5736 5735 5733 5732 5731 5730 5729 5728 5728 5727 5727 5727 5727 5726
5799 5791 5790 5803 5813 5821 5841 5844 5841 5832 5822 5831 5825 5800 5788 5799 5807 5807 5803 5800 5795 5789 5782 5774 5768 5762 5757 5753 5749 5746 5743 5741 5738 5736 5734 5733 5732 5730 5730 5729 5727 5726 5725 5725 5725 5724 5724 5724 5724
5801 5780 5782 5803 5814 5821 5835 5831 5834 5837 5823 5819 5818 5812 5803 5804 5804 5797 5792 5789 5786 5782 5778 5773 5767 5761 5757 5752 5747 5743 5740 5738 5735 5733 5732 5730 5729 5729 5728 5726 5725 5724 5723 5722 5722 5721 5721 5721 5721
5792 5776 5792 5816 5827 5827 5828 5825 5826 5822 5808 5801 5798 5802 5801 5799 5795 5788 5783 5779 5776 5773 5771 5770 5765 5760 5755 5752 5746 5742 5739 5736 5733 5732 5729 5728 5728 5727 5727 5724 5722 5721 5720 5720 5719 5718 5718 5718 5719
5791 5786 5803 5817 5827 5825 5818 5816 5823 5813 5794 5793 5787 5790 5792 5789 5787 5783 5780 5776 5773 5770 5767 5766 5762 5757 5753 5749 5744 5741 5738 5734 5731 5729 5727 5726 5725 5724 5723 5720 5719 5717 5717 5716 5716 5715 5715 5716 5717
5792 5797 5805 5810 5818 5813 5809 5809 5804 5802 5796 5799 5793 5791 5788 5785 5781 5779 5776 5773 5769 5765 5762 5761 5758 5753 5750 5746 5742 5738 5735 5731 5729 5726 5724 5722 5721 5720 5719 5717 5715 5714 5713 5712 5711 5711 5711 5712 5713
5789 5794 5803 5808 5811 5810 5807 5800 5796 5792 5798 5797 5789 5783 5780 5779 5778 5777 5775 5770 5765 5760 5757 5755 5753 5749 5745 5741 5737 5734 5731 5728 5725 5722 5719 5717 5716 5714 5713 5711 5710 5709 5708 5707 5706 5706 5706 5707 5707
5790 5794 5797 5800 5801 5801 5793 5792 5788 5784 5794 5789 5784 5778 5778 5776 5775 5772 5768 5763 5760 5756 5753 5751 5747 5743 5740 5736 5732 5729 5726 5723 5721 5717 5714 5712 5710 5708 5706 5705 5703 5702 5702 5701 5700 5700 5700 5700 5701
5790 5782 5783 5791 5795 5795 5791 5776 5780 5788 5789 5780 5777 5777 5774 5771 5770 5767 5764 5760 5756 5752 5749 5746 5742 5738 5735 5731 5728 5725 5722 5719 5715 5711 5708 5705 5703 5701 5698 5697 5696 5694 5695 5695 5694 5693 5693 5693 5694
5778 5769 5763 5781 5790 5793 5781 5759 5778 5788 5782 5773 5772 5772 5769 5765 5766 5764 5760 5757 5753 5749 5744 5741 5739 5733 5729 5725 5722 5720 5716 5713 5710 5705 5701 5698 5695 5693 5691 5689 5687 5687 5687 5687 5687 5685 5684 5684 5685
5761 5753 5756 5772 5788 5787 5778 5763 5774 5781 5776 5768 5767 5769 5766 5762 5761 5759 5756 5753 5748 5744 5739 5734 5731 5727 5723 5719 5716 5713 5710 5707 5703 5699 5695 5692 5689 5687 5684 5682 5680 5679 5679 5679 5678 5677 5676 5675 5676
5751 5758 5760 5768 5785 5783 5772 5766 5769 5773 5772 5766 5764 5764 5759 5755 5754 5753 5751 5748 5743 5739 5734 5729 5725 5721 5718 5714 5710 5706 5703 5700 5696 5691 5687 5684 5681 5679 5677 5675 5673 5672 5671 5670 5669 5668 5668 5668 5669
5763 5759 5756 5769 5785 5777 5768 5761 5760 5766 5765 5761 5759 5758 5751 5749 5750 5748 5745 5742 5737 5732 5727 5723 5719 5715 5711 5706 5703 5698 5695 5692 5688 5684 5679 5676 5673 5671 5670 5668 5667 5665 5663 5661 5661 5659 5659 5660 5661
5761 5752 5752 5767 5783 5775 5763 5756 5762 5765 5763 5760 5757 5753 5748 5746 5742 5740 5738 5734 5730 5725 5721 5717 5713 5709 5705 5701 5697 5693 5689 5685 5681 5676 5672 5669 5666 5664 5663 5660 5659 5657 5656 5654 5653 5651 5650 5651 5652
5755 5754 5754 5759 5767 5772 5761 5747 5753 5762 5764 5760 5757 5752 5747 5742 5737 5734 5731 5728 5724 5720 5716 5712 5707 5703 5699 5695 5691 5687 5682 5679 5674 5669 5666 5663 5659 5656 5654 5652 5651 5649 5648 5646 5644 5643 5642 5641 5643
5746 5764 5764 5759 5752 5748 5755 5736 5749 5755 5753 5752 5752 5750 5744 5739 5734 5730 5726 5723 5719 5715 5711 5706 5701 5697 5692 5688 5684 5679 5674 5669 5666 5664 5660 5656 5653 5649 5646 5645 5643 5641 5639 5638 5637 5636 5635 5634 5633
5755 5766 5763 5759 5751 5746 5753 5742 5746 5752 5743 5746 5749 5747 5742 5737 5732 5725 5723 5719 5715 5711 5706 5700 5695 5690 5686 5682 5678 5673 5668 5664 5661 5657 5653 5649 5646 5643 5639 5638 5635 5633 5632 5630 5629 5628 5628 5627 5626
5766 5761 5757 5755 5748 5728 5742 5736 5732 5745 5746 5747 5748 5743 5739 5735 5730 5725 5722 5716 5711 5706 5701 5694 5687 5683 5680 5676 5672 5667 5662 5658 5653 5649 5645 5643 5640 5636 5633 5631 5628 5626 5624 5623 5622 5621 5620 5620 5620
5759 5741 5723 5716 5717 5723 5747 5738 5736 5753 5757 5753 5748 5742 5736 5731 5726 5722 5717 5711 5705 5700 5695 5689 5683 5677 5674 5669 5665 5661 5656 5652 5647 5644 5640 5636 5633 5629 5625 5623 5620 5618 5617 5616 5615 5613 5613 5613 5613
5750 5740 5714 5698 5699 5719 5735 5733 5744 5756 5758 5756 5751 5744 5737 5730 5725 5720 5714 5707 5700 5695 5689 5683 5678 5673 5668 5663 5659 5655 5651 5647 5643 5639 5635 5631 5627 5623 5620 5617 5614 5612 5610 5609 5608 5607 5607 5607 5607
5744 5739 5743 5723 5715 5705 5718 5732 5743 5753 5749 5747 5744 5739 5733 5729 5724 5717 5710 5703 5696 5690 5684 5679 5673 5668 5663 5659 5654 5649 5645 5642 5638 5634 5630 5626 5622 5619 5615 5612 5609 5606 5605 5603 5602 5601 5601 5601 5600
5760 5750 5734 5718 5697 5694 5708 5717 5722 5734 5736 5739 5737 5733 5728 5724 5718 5711 5705 5698 5692 5686 5680 5674 5669 5663 5659 5655 5650 5646 5641 5637 5633 5629 5624 5620 5616 5613 5610 5607 5604 5602 5600 5598 5597 5597 5596 5596 5595
5747 5744 5737 5726 5719 5702 5693 5702 5730 5733 5736 5733 5732 5729 5725 5719 5713 5706 5699 5694 5687 5681 5676 5669 5663 5657 5653 5649 5645 5640 5637 5633 5628 5624 5620 5616 5612 5608 5606 5603 5600 5598 5596 5594 5593 5592 5591 5591 5590
5750 5744 5736 5713 5709 5711 5699 5700 5736 5737 5736 5731 5725 5721 5720 5714 5708 5700 5694 5688 5682 5676 5671 5665 5659 5654 5649 5646 5641 5636 5632 5628 5624 5620 5616 5612 5608 5605 5602 5600 5597 5595 5593 5590 5588 5587 5586 5585 5584